Regional Weather Roundup
Issued by NWS

Home | Current Version | Previous Version | Graphics & Text | Print | Product List | Glossary On
Versions: 1 2 3 4 5 6 7 8 9 10 11 12 13 14 15 16 17 18 19 20 21 22 23 24 25 26 27 28 29 30 31 32 33 34 35 36 37 38 39 40 41 42 43 44 45 46 47 48 49 50
000
ASUS43 KOAX 012010
RWRNE

WEATHER ROUNDUP FOR NEBRASKA
NATIONAL WEATHER SERVICE OMAHA NE
300 PM CDT MON JUN 01 2015

NOTES: SATELLITE DATA IS BEING USED TO AUGMENT CLOUD COVER ABOVE
       12000 FEET.
       "FAIR" INDICATES FEW OR NO CLOUDS BELOW 12,000 FEET WITH NO
       SIGNIFICANT WEATHER AND/OR OBSTRUCTIONS TO VISIBILITY.

  * THESE STATIONS DO NOT REPORT WEATHER SUCH AS RAIN...SNOW OR FOG.

NEZ001>004-019>022-054>056-012100-
NEBRASKA PANHANDLE

CITY           SKY/WX    TMP DP  RH WIND       PRES   REMARKS
SCOTTSBLUFF    SUNNY     86  58  38 SE12      29.94F
ALLIANCE       SUNNY     79  61  53 S17       29.98F
CHADRON        SUNNY     83  61  47 S18       29.90F
KIMBALL          N/A    N/A N/A N/A MISG        N/A
SIDNEY         SUNNY     81  59  47 S14G23    30.02F
$$

NEZ057>060-069>072-079>082-012100-
SOUTHWEST NEBRASKA

CITY           SKY/WX    TMP DP  RH WIND       PRES   REMARKS
NORTH PLATTE   MOSUNNY   72  60  66 SE14      30.03F
IMPERIAL       SUNNY     78  62  57 SE16      30.00F
LEXINGTON      MOSUNNY   71  61  71 SE15      30.04F
MCCOOK         SUNNY     81  60  48 SE18G24   30.00F
OGALLALA       SUNNY     79  60  51 SE14G20   30.00F
$$

NEZ005>010-023>029-035>040-094-012100-
NORTH CENTRAL NEBRASKA

CITY           SKY/WX    TMP DP  RH WIND       PRES   REMARKS
VALENTINE      SUNNY     80  58  46 S22G30    29.97F
AINSWORTH      SUNNY     78  61  55 S18       29.99F
BROKEN BOW     PTSUNNY   77  59  53 S20G31    30.03F
O`NEILL        MOSUNNY   77  60  57 S15G21    30.03F
ORD            MOSUNNY   77  57  50 SE14G26   30.02F
THEDFORD       SUNNY     78  61  55 S16G24    30.01F
$$

NEZ041-046>049-061>064-073>077-083>087-012100-
SOUTH CENTRAL NEBRASKA

CITY           SKY/WX    TMP DP  RH WIND       PRES   REMARKS
GRAND ISLAND   MOSUNNY   78  56  46 S17G25    30.06F
AURORA         MOSUNNY   76  55  47 S15       30.06F
HASTINGS       MOSUNNY   74  57  55 S14G22    30.06F
HEBRON         SUNNY     76  52  42 SE14      30.07F
HOLDREGE       CLOUDY    71  59  65 SE17      30.06F
KEARNEY *      PTSUNNY   75  57  53 SE18G28   30.05S
YORK           SUNNY     77  54  44 S14G25    30.07F
$$

NEZ011>018-030>034-042>045-012100-
NORTHEAST NEBRASKA

CITY           SKY/WX    TMP DP  RH WIND       PRES   REMARKS
NORFOLK        SUNNY     77  52  41 S16       30.05F
ALBION         MOSUNNY   76  56  49 SE16G24   30.05F
BLAIR          SUNNY     74  50  42 SE10G21   30.11F
COLUMBUS *     MOSUNNY   77  50  38 SE12G20   30.08F
FREMONT        SUNNY     74  52  45 SE14G22   30.10F
TEKAMAH        SUNNY     77  51  40 S14G22    30.09F
WAYNE          SUNNY     76  53  46 S14G24    30.07F
$$

NEZ050>053-065>068-078-088>093-012100-
SOUTHEAST NEBRASKA

CITY           SKY/WX    TMP DP  RH WIND       PRES   REMARKS
LINCOLN        SUNNY     76  53  44 S14G22    30.10F
OMAHA EPPLEY   MOSUNNY   73  53  49 S16       30.11F
BEATRICE       MOSUNNY   72  55  54 SE14      30.10F
FALLS CITY     MOSUNNY   71  55  56 E8G16     30.12F
NEBRASKA CITY  MOSUNNY   71  51  50 E10       30.13F
PLATTSMOUTH    MOSUNNY   71  50  46 SE9       30.12F
$$

NEZ044-045-051>053-067-012100-
OMAHA AREA

CITY           SKY/WX    TMP DP  RH WIND       PRES   REMARKS
OMAHA EPPLEY   MOSUNNY   73  53  49 S16       30.11F
BLAIR          SUNNY     74  50  42 SE10G21   30.11F
FREMONT        SUNNY     74  52  45 SE14G22   30.10F
MILLARD        SUNNY     73  55  53 SE13      30.11F
OFFUTT AFB     SUNNY     73  54  51 S10G18    30.11F
PLATTSMOUTH    MOSUNNY   71  50  46 SE9       30.12F
WAHOO          FAIR      75  52  43 SE17G24   30.09F
$$


USA.gov is the U.S. government's official web portal to all federal, state and local government web resources and services.